Location: Austin
(30.3000°N, 97.7500°W)
Time: 06:13:52
(UTC-05:00)

Cosmos 2228 - Pass Details

Date: 16 June 2025
Orbit: 566 x 594 km, 82.5° (Epoch: 07 July)

Event Time Altitude Azimuth Distance (km) Brightness Sun altitude
Rises 04:48:26 0° 341° (NNW) 2,764 6.7 -18.6°
Reaches altitude 10° 04:50:46 10° 331° (NNW) 1,865 5.7 -18.2°
Maximum altitude 04:54:25 31° 269° (W) 999 3.7 -17.6°
Enters shadow 04:54:33 31° 265° (W) 1,001 3.7 -17.6°
